Flag for Norway Weather past 2 weeks in Kristiansund, Norway

Now
55 °F

Overcast.


Feels Like: 54 °F
Forecast: 57 / 68 °F
Wind: 6 mph from East

Location: Kristiansund / Kvernberget

Current Time: Jul 1, 2015 at 4:52:27 AM

Latest Report: Jul 1, 2015 at 4:20 AM


Visibility: N/A

Pressure: 30.12 "Hg

Humidity: 82%

Dew point: 50 °F

Location of KristiansundLocation

Historic Weather in Kristiansund — Graph

°F

Kristiansund temperature yesterday

Maximum temperature yesterday: 59 °F (at 4:50 PM)
Minimum temperature yesterday: 52 °F (at 12:20 AM)
Average temperature yesterday: 54 °F

Past Weeks' High & Low Weather Summary

 TemperatureHumidityPressure
High63 °F (Jun 28, 4:50 PM)100% (Jun 18, 5:20 AM)30.18 "Hg (Jun 18, 5:20 AM)
Low43 °F (Jun 16, 3:20 AM)51% (Jun 17, 11:50 AM)29.62 "Hg (Jun 18, 2:50 AM)
Average52 °F78%29.92 "Hg
* Reported Jun 16 3:20 AM — Jul 1 3:50 AM, Kristiansund, Weather by CustomWeather, © 2015

Note: Actual official high and low records may vary slightly from our data, if they occured in-between our weather recording intervals... More about our weather records

Advertising

Kristiansund weather history for previous 24 hours

 ConditionsComfort  
Time TempWeatherWind HumidityBarometerVisibility
3:50 AM
Wed, Jul 1
55 °FOvercast.5 mph82%30.12 "HgN/A
3:20 AM55 °FOvercast.5 mph82%30.12 "HgN/A
2:50 AM55 °FDrizzle. Overcast.6 mph88%30.12 "HgN/A
2:20 AM54 °FMostly cloudy.6 mph94%30.12 "HgN/A
1:50 AM54 °FPartly cloudy.5 mph94%30.12 "HgN/A
1:20 AM55 °FPassing clouds.6 mph88%30.12 "HgN/A
12:50 AM55 °FLight rain. Overcast.6 mph88%30.15 "HgN/A
12:20 AM54 °FBroken clouds.6 mph94%30.15 "HgN/A
11:50 PM
Tue, Jun 30
55 °FPartly sunny.6 mph88%30.15 "HgN/A
11:20 PM55 °FPartly sunny.5 mph88%30.15 "HgN/A
10:50 PM55 °FBroken clouds.6 mph88%30.15 "HgN/A
10:20 PM55 °FScattered clouds.6 mph88%30.15 "HgN/A
9:50 PM55 °FCool.5 mph82%30.15 "HgN/A
9:20 PM55 °FOvercast.3 mph82%30.15 "HgN/A
8:50 PM55 °FOvercast.3 mph82%30.15 "HgN/A
8:20 PM55 °FPartly sunny.3 mph82%30.15 "HgN/A
7:50 PM57 °FPartly sunny.2 mph77%30.15 "HgN/A
6:50 PM55 °FBroken clouds.3 mph82%30.18 "HgN/A
6:20 PM57 °FBroken clouds.9 mph72%30.18 "HgN/A
5:50 PM59 °FBroken clouds.10 mph72%30.18 "HgN/A
4:50 PM59 °FBroken clouds.9 mph82%30.18 "HgN/A
4:20 PM57 °FBroken clouds.10 mph82%30.18 "HgN/A
3:50 PM57 °FBroken clouds.7 mph82%30.15 "HgN/A
2:50 PM54 °FBroken clouds.8 mph94%30.15 "HgN/A
2:20 PM54 °FSprinkles. Light fog.6 mph94%30.15 "Hg4 mi
1:50 PM52 °FLight rain. Fog.8 mph100%30.15 "Hg2 mi
1:20 PM52 °FRain. Fog.7 mph100%30.15 "Hg3 mi
12:50 PM54 °FDrizzle. Light fog.8 mph88%30.15 "Hg6 mi
12:20 PM54 °FDrizzle. Fog.13 mph88%30.15 "HgN/A
11:50 AM55 °FBroken clouds.14 mph77%30.15 "HgN/A
11:20 AM55 °FBroken clouds.14 mph82%30.12 "HgN/A
10:50 AM55 °FBroken clouds.16 mph82%30.12 "HgN/A
10:20 AM55 °FBroken clouds.14 mph82%30.12 "HgN/A
9:50 AM55 °FBroken clouds.13 mph77%30.09 "HgN/A
9:20 AM54 °FBroken clouds.14 mph88%30.09 "HgN/A
8:50 AM55 °FBroken clouds.14 mph82%30.09 "HgN/A
8:20 AM54 °FBroken clouds.13 mph82%30.09 "HgN/A
7:50 AM54 °FPartly sunny.13 mph88%30.09 "HgN/A
7:20 AM54 °FBroken clouds.9 mph88%30.07 "HgN/A
6:50 AM54 °FBroken clouds.13 mph88%30.07 "HgN/A
6:20 AM52 °FBroken clouds.9 mph94%30.07 "HgN/A
5:50 AM52 °FBroken clouds.10 mph94%30.07 "HgN/A
5:20 AM52 °FBroken clouds.7 mph94%30.07 "HgN/A
4:50 AM52 °FDrizzle. Broken clouds.6 mph94%30.07 "Hg3 mi
4:20 AM52 °FOvercast.6 mph94%30.07 "HgN/A
Weather by CustomWeather, © 2015

See weather overviewHow to use our weather pages